Regional Weather Roundup
Issued by NWS Sterling, VA

Home | Current Version | Previous Version | Text Only | Print | Product List | Glossary Off
Versions: 1 2 3 4 5 6 7 8 9 10 11 12 13 14 15 16 17 18 19 20 21 22 23 24 25 26 27 28

000
ASUS41 KLWX 212110
RWRLWX

REGIONAL WEATHER ROUNDUP
NATIONAL WEATHER SERVICE BALTIMORE MD/WASHINGTON DC
500 PM EDT SUN MAY 21 2017

Note: "FAIR" indicates few or no clouds below 12,000 feet
with no significant weather and/or obstructions to visibility.
 TC=TEMPERATURE CELSIUS

 * =Non NWS site. Station does not report precipitation (e.g. rain,
    snow, etc.), thunder, or fog.

DCZ001-MDZ009-015-VAZ040>042-051-053>054-212200-
WASHINGTON METRO

CITY           SKY/WX    TMP DP  RH WIND       PRES   REMARKS
WASHINGTON NAT CLOUDY    67  51  56 SE9       30.23F
DULLES         CLOUDY    65  48  54 SE12      30.22F
ANDREWS AFB    CLOUDY    66  49  54 E8        30.22F
FT BELVOIR     CLOUDY    68  50  51 SE6       30.22F
QUANTICO       CLOUDY    68  51  54 SE12      30.23F
COLLEGE PARK*  CLOUDY    66  49  54 SE5       30.22F
LEESBURG*      PTSUNNY   68  50  52 S9        30.23F
MANASSAS*        N/A     65  51  60 SE9       30.22F
GAITHERSBURG*  CLOUDY    64  49  57 SE8       30.24F

$$

MDZ006>007-011-014-212200-
BALTIMORE METRO

CITY           SKY/WX    TMP DP  RH WIND       PRES   REMARKS
BWI AIRPORT    CLOUDY    66  49  54 E10       30.23F
MD SCIENCE CTR   N/A     66  50  56 MISG      30.24F
MARTIN STATE   CLOUDY    66  52  59 E9        30.26F
ANNAPOLIS      CLOUDY    67  51  56 SE10      30.23F
FORT MEADE*    CLOUDY    64  48  55 SE7       30.26S

$$

MDZ012-015-019>023-212200-
MARYLAND EASTERN SHORE

CITY           SKY/WX    TMP DP  RH WIND       PRES   REMARKS
OCEAN CITY     CLOUDY    61  52  72 E10       30.28F
SALISBURY      CLOUDY    64  48  56 E10G21    30.25F
BAY BRIDGE AP*   N/A     68  46  45 E9        30.23F
CAMBRIDGE*     CLOUDY    66  46  48 E10       30.25S
EASTON*        CLOUDY    66  46  48 SE9       30.29S

$$

MDZ017>025-212200-
SOUTHERN MARYLAND

CITY           SKY/WX    TMP DP  RH WIND       PRES   REMARKS
PATUXENT RIVER CLOUDY    67  51  56 SE8       30.23F
ST INIGOES     CLOUDY    67  51  56 SE10      30.23F
LEONARDTOWN*   PTSUNNY   64  45  48 SE6       30.25F

$$

MDZ003>005-212200-
NORTH CENTRAL MARYLAND

CITY           SKY/WX    TMP DP  RH WIND       PRES   REMARKS
FREDERICK*     CLOUDY    68  52  56 SE7       30.24F
HAGERSTOWN APT CLOUDY    65  45  48 SE6       30.21F
WESTMINSTER*   CLOUDY    66  48  52 SE7       30.23S

$$

MDZ501>502-212200-
WESTERN MARYLAND

CITY           SKY/WX    TMP DP  RH WIND       PRES   REMARKS
OAKLAND*       CLOUDY    55  54  94 SE12      30.17S
CUMBERLAND*    CLOUDY    64  48  55 E5        30.19F

$$

VAZ025>031-212200-
SHENANDOAH VALLEY

CITY           SKY/WX    TMP DP  RH WIND       PRES   REMARKS
WINCHESTER*    CLOUDY    64  50  59 S9        30.19F
FRONT ROYAL*   CLOUDY    66  54  63 S7        30.17F
LURAY*         CLOUDY    68  55  64 SW7       30.17F
NEW MARKET*    CLOUDY    71  55  56 S6        30.16F
STAUNTON*      CLOUDY    66  56  69 SE6       30.21S
WAYNESBORO*    PTSUNNY   63  56  78 SE9G20    30.20F

$$

WVZ021-048>050-054>055-212200-
EASTERN WEST VIRGINIA PANHANDLE

CITY           SKY/WX    TMP DP  RH WIND       PRES   REMARKS
MARTINSBURG    CLOUDY    65  46  50 SE8       30.19F
PETERSBURG*    CLOUDY    73  62  68 SE7       30.13S

$$

VAZ036>039-050-212200-
CENTRAL FOOTHILLS

CITY           SKY/WX    TMP DP  RH WIND       PRES   REMARKS
CHARLOTTESVILL CLOUDY    66  55  67 E3        30.21F
CULPEPER*      CLOUDY    67  56  69 E3        30.22F
ORANGE*        CLOUDY    64  55  72 SE3       30.21F
GORDONSVILLE*  CLOUDY    66  56  70 CALM      30.21F
WARRENTON*     CLOUDY    67  48  49 SE7       30.21F

$$

VAZ055>057-212200-
NORTH AND CENTRAL PIEDMONT

CITY           SKY/WX    TMP DP  RH WIND       PRES   REMARKS
FREDERICKSBRG* PTSUNNY   68  56  64 E8        30.21F
STAFFORD*      CLOUDY    66  55  66 E10       30.26F

$$

NCZ024-NYZ072-PAZ021-071-VAZ022-071-212200-
OTHER REGIONAL OBSERVATIONS

CITY           SKY/WX    TMP DP  RH WIND       PRES   REMARKS
NEW YORK CITY  SUNNY     63  34  33 VRB5G18   30.32F
PHILADELPHIA   PTSUNNY   69  39  33 SE12      30.25F
PITTSBURGH     LGT RAIN  68  67  96 S9        30.03F
ROANOKE        CLOUDY    63  58  83 SE6       30.22F
RICHMOND       CLOUDY    69  56  62 SE8       30.21F
RALEIGH        PTSUNNY   75  65  70 NE9       30.16F

$$

ANZ530>537-212200-
MARINE OBSERVATIONS

STATION/POSITION TIME  TEMP    WIND        PRES
                       AIR SEA DIR/SP/G
                 (UTC) (F)     (DEG/KT/KT) (MB)
THOMAS PT LIGHT  2100   65 67  120/ 10/ 11   N/A
BALT KEY BRIDGE  2042   64     120/ 12/ 13 1024.0F
COVE POINT       2042   65     180/ 10/ 12 1024.5F
LEWISETTA        2042   65 72  130/ 15/ 17 1023.5F
SOLOMONS ISLAND  2042   66 68  130/ 11/ 13   N/A
PINEY POINT      2048          150/ 13/ 15   N/A

$$





USA.gov is the U.S. government's official web portal to all federal, state and local government web resources and services.